Guymon, OK

3:53 PM CST on December 15, 2017 (GMT -0600)
Guymon Municipal

Weather History for KGUY - May, 2013

Change the Weather History Date:

Monday, May 27, 2013

  Actual Average Record
Temperature  
Mean Temperature 83 °F 68 °F  
Max Temperature 100 °F 82 °F 101 °F (2006)
Min Temperature 66 °F 55 °F 47 °F (2016)
Degree Days  
Heating Degree Days 0 1  
Month to date heating degree days 98 91  
Since 1 July heating degree days 4311 4444  
Cooling Degree Days 18 5  
Month to date cooling degree days 134 73  
Year to date cooling degree days 159 88  
Growing Degree Days 32 (Base 50)    
Moisture  
Dew Point 33 °F    
Average Humidity 39    
Maximum Humidity 73    
Minimum Humidity 4    
Precipitation  
Precipitation 0.00 in 0.10 in 0.40 in (1999)
Month to date precipitation 0.14 1.98  
Year to date precipitation 2.33 5.79  
Snow  
Snow 0.00 in - - ()
Month to date snowfall 0.3  
Since 1 July snowfall 22.3  
Snow Depth 0.00 in    
Sea Level Pressure  
Sea Level Pressure 29.54 in    
Wind  
Wind Speed 15 mph (SW)    
Max Wind Speed 33 mph    
Max Gust Speed 41 mph    
Visibility 10 miles    
Events      
T = Trace of Precipitation, MM = Missing Value Source: NWS Daily Summary

Daily Weather History Graph

Daily Weather History Graph

Search for Another Location

Airport or City:

Trip Planner

Search our weather history database for the weather conditions in past years. The results will help you decide how hot, cold, wet, or windy it might be!

Date:

Astronomy

May. 27, 2013 Rise Set
Actual Time 6:30 AM CDT 8:56 PM CDT
Civil Twilight 6:00 AM CDT 9:25 PM CDT
Nautical Twilight 5:24 AM CDT 10:02 PM CDT
Astronomical Twilight 4:43 AM CDT 10:43 PM CDT
Moon 11:38 PM CDT (5/27) 9:09 AM CDT (5/27)
Length of Visible Light 15h 24m
Length of Day
14h 25m
Waning Gibbous, 91% of the Moon is Illuminated
May 27
Waning Gibbous
May 31
Last Quarter
Jun 8
New
Jun 16
First Quarter
Jun 23
Full

Hourly Weather History & Observations

Time (CDT) Temp. Heat Index Dew Point Humidity Pressure Visibility Wind Dir Wind Speed Gust Speed Precip Events Conditions
12:53 AM 81.0 °F 81.3 °F 59.0 °F 47% 29.59 in 10.0 mi South 26.5 mph 38.0 mph N/A   Clear
1:53 AM 80.1 °F 80.7 °F 59.0 °F 48% 29.59 in 10.0 mi South 26.5 mph 38.0 mph N/A   Clear
2:53 AM 78.1 °F - 60.1 °F 54% 29.58 in 10.0 mi South 21.9 mph 34.5 mph N/A   Clear
3:53 AM 75.9 °F - 61.0 °F 60% 29.57 in 10.0 mi South 20.7 mph 28.8 mph N/A   Clear
4:53 AM 73.0 °F - 61.0 °F 66% 29.57 in 10.0 mi SSW 17.3 mph - N/A   Clear
5:53 AM 68.0 °F - 59.0 °F 73% 29.61 in 10.0 mi West 5.8 mph - N/A   Clear
6:53 AM 66.9 °F - 57.9 °F 73% 29.61 in 10.0 mi SSW 11.5 mph - N/A   Clear
7:53 AM 71.1 °F - 57.9 °F 63% 29.61 in 10.0 mi SW 9.2 mph - N/A   Clear
8:53 AM 75.0 °F - 53.1 °F 46% 29.60 in 10.0 mi WSW 15.0 mph - N/A   Clear
9:53 AM 82.9 °F - 35.1 °F 18% 29.58 in 10.0 mi WSW 16.1 mph - N/A   Clear
10:53 AM 93.0 °F - 24.1 °F 8% 29.55 in 10.0 mi WNW 13.8 mph - N/A   Clear
11:53 AM 95.0 °F - 23.0 °F 8% 29.55 in 10.0 mi West 11.5 mph - N/A   Clear
12:53 PM 97.0 °F - 19.9 °F 6% 29.53 in 10.0 mi WSW 8.1 mph 16.1 mph N/A   Clear
1:53 PM 99.0 °F - 16.0 °F 5% 29.51 in 10.0 mi SW 20.7 mph 32.2 mph N/A   Clear
2:53 PM 97.0 °F - 15.1 °F 5% 29.51 in 10.0 mi SW 18.4 mph 29.9 mph N/A   Clear
3:53 PM 96.1 °F - 15.1 °F 5% 29.49 in 10.0 mi SW 17.3 mph 29.9 mph N/A   Clear
4:53 PM 96.1 °F - 12.9 °F 5% 29.48 in 10.0 mi SW 24.2 mph 29.9 mph N/A   Clear
5:53 PM 96.1 °F - 10.9 °F 4% 29.48 in 10.0 mi SW 19.6 mph 33.4 mph N/A   Clear
6:53 PM 93.0 °F - 12.9 °F 5% 29.47 in 10.0 mi SW 18.4 mph 24.2 mph N/A   Clear
7:53 PM 90.0 °F - 17.1 °F 7% 29.47 in 10.0 mi SW 13.8 mph - N/A   Clear
8:53 PM 87.1 °F - 12.0 °F 6% 29.47 in 10.0 mi SSW 12.7 mph - N/A   Clear
9:53 PM 75.9 °F - 17.1 °F 11% 29.48 in 10.0 mi SSW 8.1 mph - N/A   Clear
10:53 PM 72.0 °F - 19.9 °F 14% 29.49 in 10.0 mi SSW 8.1 mph - N/A   Clear
11:53 PM 78.1 °F - 17.1 °F 10% 29.47 in 10.0 mi SSW 17.3 mph 21.9 mph N/A   Clear